QPF
0.00 0.00 0.00 0.00 0.00 0.00 0.00 0.00 0.00 0.00 0.00 0.00 0.00 0.00 0.00 0.00 0.00 0.00 0.00 0.00 0.00 0.00 0.00 0.00 0.00 0.00 0.00 0.00 0.00 0.00 0.00 0.00 0.00 0.00 0.00 0.00 0.00 0.00 0.00 0.00 0.00 0.00 0.00 0.00 0.00 0.00 0.00 0.00 0.00
0.00 0.00 0.00 0.00 0.00 0.00 0.00 0.00 0.00 0.00 0.00 0.00 0.00 0.00 0.00 0.00 0.00 0.00 0.00 0.00 0.00 0.00 0.00 0.00 0.00 0.00 0.00 0.00 0.00 0.00 0.00 0.00 0.00 0.00 0.00 0.00 0.00 0.00 0.00 0.00 0.00 0.00 0.00 0.00 0.00 0.00 0.00 0.00 0.00
0.00 0.00 0.00 0.00 0.00 0.00 0.00 0.00 0.00 0.00 0.00 0.00 0.00 0.00 0.00 0.00 0.00 0.00 0.00 0.00 0.00 0.00 0.00 0.00 0.00 0.00 0.00 0.00 0.00 0.00 0.00 0.00 0.00 0.00 0.00 0.00 0.00 0.00 0.00 0.00 0.00 0.00 0.00 0.00 0.00 0.00 0.00 0.00 0.00
0.00 0.00 0.00 0.00 0.00 0.00 0.00 0.00 0.00 0.00 0.00 0.00 0.00 0.00 0.00 0.00 0.00 0.00 0.00 0.00 0.00 0.00 0.00 0.00 0.00 0.00 0.00 0.00 0.00 0.00 0.00 0.00 0.00 0.00 0.00 0.00 0.00 0.00 0.00 0.00 0.00 0.00 0.00 0.00 0.00 0.00 0.00 0.00 0.00
0.00 0.00 0.00 0.00 0.00 0.00 0.00 0.00 0.00 0.00 0.00 0.00 0.00 0.00 0.00 0.00 0.00 0.00 0.00 0.00 0.00 0.00 0.00 0.00 0.00 0.00 0.00 0.00 0.00 0.00 0.00 0.00 0.00 0.00 0.00 0.00 0.00 0.00 0.00 0.00 0.00 0.00 0.00 0.00 0.00 0.00 0.00 0.00 0.00
0.00 0.00 0.00 0.00 0.00 0.00 0.00 0.00 0.00 0.00 0.00 0.00 0.00 0.00 0.00 0.00 0.00 0.00 0.00 0.00 0.00 0.00 0.00 0.00 0.00 0.00 0.00 0.00 0.00 0.00 0.00 0.00 0.00 0.00 0.00 0.00 0.00 0.00 0.00 0.00 0.00 0.00 0.00 0.00 0.00 0.00 0.00 0.00 0.00
0.00 0.00 0.00 0.00 0.00 0.00 0.00 0.00 0.00 0.00 0.00 0.00 0.00 0.00 0.00 0.00 0.00 0.00 0.00 0.00 0.00 0.00 0.00 0.00 0.00 0.00 0.00 0.00 0.00 0.00 0.00 0.00 0.00 0.00 0.00 0.00 0.00 0.00 0.00 0.00 0.00 0.00 0.00 0.00 0.00 0.00 0.00 0.00 0.00
0.00 0.00 0.00 0.00 0.00 0.00 0.00 0.00 0.00 0.00 0.00 0.00 0.00 0.00 0.00 0.00 0.00 0.00 0.00 0.00 0.00 0.00 0.00 0.00 0.00 0.00 0.00 0.00 0.00 0.00 0.00 0.00 0.00 0.00 0.00 0.00 0.00 0.00 0.00 0.00 0.00 0.00 0.00 0.00 0.00 0.00 0.00 0.00 0.00
0.00 0.00 0.00 0.00 0.00 0.00 0.00 0.00 0.00 0.00 0.00 0.00 0.00 0.00 0.00 0.00 0.00 0.00 0.00 0.00 0.00 0.00 0.00 0.00 0.00 0.00 0.00 0.00 0.00 0.00 0.00 0.00 0.00 0.00 0.00 0.00 0.00 0.00 0.00 0.00 0.00 0.00 0.00 0.00 0.00 0.00 0.00 0.00 0.00
0.00 0.00 0.00 0.00 0.00 0.00 0.00 0.00 0.00 0.00 0.00 0.00 0.00 0.00 0.00 0.00 0.00 0.00 0.00 0.00 0.00 0.00 0.00 0.00 0.00 0.00 0.00 0.00 0.00 0.00 0.00 0.00 0.00 0.00 0.00 0.00 0.00 0.00 0.00 0.00 0.00 0.00 0.00 0.00 0.00 0.00 0.00 0.00 0.00
0.00 0.00 0.00 0.00 0.00 0.00 0.00 0.00 0.00 0.00 0.00 0.00 0.00 0.00 0.00 0.00 0.00 0.00 0.00 0.00 0.00 0.00 0.00 0.00 0.00 0.00 0.00 0.00 0.00 0.00 0.00 0.00 0.00 0.00 0.00 0.00 0.00 0.00 0.00 0.00 0.00 0.00 0.00 0.00 0.00 0.00 0.00 0.00 0.00
0.00 0.00 0.00 0.00 0.00 0.00 0.00 0.00 0.00 0.00 0.00 0.00 0.00 0.00 0.00 0.00 0.00 0.00 0.00 0.00 0.00 0.00 0.00 0.01 0.04 0.04 0.02 0.00 0.00 0.00 0.00 0.00 0.00 0.00 0.00 0.00 0.00 0.00 0.00 0.00 0.00 0.00 0.00 0.00 0.00 0.00 0.00 0.00 0.00
0.00 0.00 0.00 0.00 0.00 0.00 0.00 0.00 0.00 0.00 0.00 0.00 0.00 0.00 0.00 0.00 0.00 0.00 0.00 0.00 0.00 0.00 0.00 0.00 0.06 0.08 0.09 0.01 0.00 0.00 0.00 0.00 0.00 0.00 0.00 0.00 0.00 0.00 0.00 0.00 0.00 0.00 0.00 0.00 0.00 0.00 0.00 0.00 0.00
0.00 0.00 0.00 0.00 0.00 0.00 0.00 0.00 0.00 0.00 0.00 0.00 0.00 0.00 0.00 0.00 0.00 0.00 0.00 0.00 0.00 0.00 0.02 0.03 0.08 0.05 0.02 0.00 0.00 0.00 0.00 0.00 0.00 0.00 0.00 0.00 0.00 0.00 0.00 0.00 0.00 0.00 0.00 0.00 0.00 0.00 0.00 0.00 0.00
0.00 0.00 0.00 0.00 0.00 0.00 0.00 0.00 0.00 0.00 0.00 0.00 0.00 0.00 0.00 0.00 0.00 0.00 0.00 0.00 0.00 0.00 0.01 0.04 0.03 0.01 0.00 0.00 0.00 0.00 0.00 0.00 0.00 0.00 0.00 0.00 0.00 0.00 0.00 0.00 0.00 0.00 0.00 0.00 0.00 0.00 0.00 0.00 0.00
0.00 0.00 0.00 0.00 0.00 0.00 0.00 0.00 0.00 0.00 0.00 0.00 0.00 0.00 0.00 0.00 0.00 0.00 0.00 0.00 0.00 0.00 0.02 0.01 0.00 0.00 0.00 0.00 0.00 0.00 0.00 0.00 0.00 0.00 0.00 0.00 0.00 0.00 0.00 0.00 0.00 0.00 0.00 0.00 0.00 0.00 0.00 0.00 0.00
0.00 0.00 0.00 0.00 0.00 0.00 0.00 0.00 0.00 0.00 0.00 0.00 0.00 0.00 0.00 0.00 0.00 0.00 0.00 0.01 0.00 0.00 0.00 0.01 0.00 0.00 0.00 0.00 0.00 0.00 0.00 0.02 0.03 0.01 0.00 0.00 0.00 0.00 0.00 0.00 0.00 0.00 0.00 0.00 0.00 0.00 0.00 0.00 0.00
0.00 0.00 0.00 0.00 0.00 0.00 0.00 0.00 0.00 0.00 0.00 0.00 0.00 0.00 0.00 0.00 0.00 0.00 0.00 0.00 0.00 0.00 0.00 0.00 0.00 0.00 0.00 0.00 0.00 0.01 0.03 0.06 0.03 0.00 0.00 0.00 0.00 0.00 0.00 0.00 0.00 0.00 0.00 0.00 0.00 0.00 0.00 0.00 0.00
0.00 0.00 0.00 0.00 0.00 0.00 0.00 0.00 0.00 0.00 0.00 0.00 0.00 0.00 0.00 0.00 0.00 0.00 0.00 0.00 0.00 0.00 0.00 0.00 0.00 0.00 0.00 0.00 0.00 0.01 0.03 0.02 0.01 0.00 0.00 0.00 0.00 0.00 0.00 0.00 0.00 0.00 0.00 0.00 0.00 0.00 0.00 0.00 0.00
0.00 0.00 0.00 0.00 0.00 0.00 0.00 0.00 0.00 0.00 0.00 0.00 0.00 0.00 0.00 0.00 0.00 0.00 0.00 0.00 0.00 0.00 0.00 0.00 0.00 0.00 0.00 0.00 0.00 0.01 0.02 0.01 0.00 0.00 0.00 0.00 0.00 0.00 0.00 0.00 0.00 0.00 0.00 0.00 0.00 0.00 0.00 0.00 0.00
0.00 0.00 0.00 0.00 0.00 0.00 0.00 0.00 0.00 0.00 0.00 0.00 0.00 0.00 0.00 0.00 0.00 0.00 0.00 0.00 0.00 0.00 0.00 0.00 0.00 0.00 0.00 0.00 0.01 0.04 0.01 0.00 0.00 0.00 0.00 0.00 0.00 0.00 0.00 0.00 0.00 0.00 0.00 0.00 0.00 0.00 0.00 0.00 0.00
0.00 0.00 0.00 0.00 0.00 0.00 0.00 0.00 0.00 0.00 0.00 0.00 0.00 0.00 0.00 0.00 0.00 0.00 0.00 0.00 0.00 0.00 0.00 0.00 0.00 0.00 0.00 0.01 0.01 0.00 0.00 0.00 0.00 0.00 0.00 0.00 0.00 0.00 0.00 0.00 0.00 0.00 0.00 0.00 0.00 0.00 0.00 0.01 0.01
0.00 0.00 0.00 0.00 0.00 0.00 0.00 0.00 0.00 0.00 0.00 0.00 0.00 0.00 0.00 0.00 0.00 0.00 0.00 0.00 0.00 0.00 0.00 0.00 0.00 0.00 0.01 0.01 0.00 0.00 0.00 0.00 0.00 0.00 0.00 0.00 0.00 0.00 0.00 0.00 0.00 0.00 0.00 0.00 0.01 0.01 0.01 0.01 0.00
0.00 0.00 0.00 0.00 0.00 0.00 0.00 0.00 0.00 0.00 0.00 0.00 0.00 0.00 0.00 0.00 0.00 0.00 0.00 0.00 0.00 0.00 0.00 0.00 0.00 0.00 0.02 0.00 0.00 0.00 0.00 0.00 0.00 0.00 0.00 0.00 0.00 0.00 0.00 0.00 0.00 0.00 0.00 0.00 0.00 0.01 0.01 0.01 0.00
0.00 0.00 0.00 0.00 0.00 0.00 0.00 0.00 0.00 0.00 0.00 0.00 0.00 0.00 0.00 0.00 0.00 0.00 0.00 0.00 0.00 0.00 0.00 0.00 0.00 0.01 0.00 0.00 0.00 0.00 0.00 0.00 0.00 0.00 0.00 0.00 0.00 0.00 0.00 0.00 0.00 0.00 0.00 0.00 0.00 0.01 0.01 0.00 0.00
0.00 0.00 0.00 0.00 0.00 0.00 0.00 0.00 0.00 0.00 0.00 0.00 0.00 0.00 0.00 0.00 0.00 0.00 0.00 0.00 0.00 0.00 0.00 0.00 0.00 0.00 0.00 0.00 0.00 0.00 0.00 0.00 0.00 0.00 0.00 0.00 0.00 0.00 0.00 0.00 0.00 0.00 0.00 0.00 0.00 0.00 0.01 0.00 0.00
0.00 0.00 0.00 0.00 0.00 0.00 0.00 0.00 0.00 0.00 0.00 0.00 0.00 0.00 0.00 0.00 0.00 0.00 0.00 0.00 0.00 0.00 0.00 0.00 0.00 0.00 0.00 0.00 0.00 0.00 0.00 0.00 0.00 0.00 0.00 0.00 0.00 0.00 0.00 0.00 0.00 0.00 0.00 0.00 0.00 0.00 0.01 0.01 0.01
0.00 0.00 0.00 0.00 0.00 0.00 0.00 0.00 0.00 0.00 0.00 0.00 0.00 0.00 0.00 0.00 0.00 0.00 0.00 0.00 0.00 0.00 0.00 0.00 0.00 0.00 0.00 0.00 0.00 0.00 0.00 0.00 0.00 0.00 0.00 0.00 0.00 0.00 0.00 0.00 0.00 0.00 0.00 0.00 0.01 0.01 0.01 0.01 0.01
0.00 0.00 0.00 0.00 0.00 0.00 0.00 0.00 0.00 0.00 0.00 0.00 0.00 0.00 0.00 0.00 0.00 0.00 0.00 0.00 0.00 0.00 0.00 0.00 0.00 0.00 0.00 0.00 0.00 0.00 0.00 0.00 0.00 0.00 0.00 0.00 0.00 0.00 0.00 0.00 0.00 0.00 0.00 0.00 0.01 0.01 0.01 0.01 0.01
0.00 0.00 0.00 0.00 0.00 0.00 0.00 0.00 0.00 0.00 0.00 0.00 0.00 0.00 0.00 0.00 0.00 0.00 0.00 0.00 0.00 0.00 0.00 0.00 0.00 0.00 0.00 0.00 0.00 0.00 0.00 0.00 0.00 0.00 0.00 0.00 0.00 0.00 0.00 0.00 0.00 0.00 0.00 0.00 0.01 0.01 0.01 0.00 0.01
MSLP
1013.11 1013.23 1013.21 1012.48 1012.12 1011.85 1012.34 1013.18 1013.92 1014.18 1014.45 1014.80 1015.07 1015.08 1015.19 1015.45 1015.52 1016.32 1016.90 1017.21 1017.22 1017.42 1018.06 1018.53 1018.96 1019.08 1019.17 1019.32 1019.46 1019.50 1019.60 1019.67 1019.70 1019.67 1019.61 1019.66 1019.59 1019.53 1019.50 1019.49 1019.35 1019.36 1019.29 1019.23 1019.13 1019.05 1018.99 1018.89 1018.79
1012.94 1013.17 1012.72 1011.98 1011.71 1011.86 1012.58 1013.34 1013.62 1014.18 1014.54 1014.89 1014.96 1014.98 1015.03 1015.25 1015.68 1016.17 1016.72 1017.27 1017.25 1017.49 1017.91 1018.21 1018.77 1018.97 1019.20 1019.39 1019.48 1019.56 1019.69 1019.81 1019.83 1019.80 1019.75 1019.72 1019.68 1019.58 1019.50 1019.47 1019.39 1019.30 1019.17 1019.11 1019.08 1019.02 1018.93 1018.89 1018.73
1012.92 1012.71 1011.86 1011.72 1012.07 1012.05 1012.65 1013.32 1013.89 1014.38 1014.62 1014.61 1014.65 1014.89 1015.10 1015.29 1015.73 1015.95 1016.40 1017.03 1017.35 1017.66 1017.98 1018.45 1018.99 1019.15 1019.37 1019.54 1019.59 1019.66 1019.71 1019.72 1019.77 1019.75 1019.81 1019.78 1019.73 1019.70 1019.56 1019.37 1019.35 1019.23 1019.04 1018.94 1018.85 1018.77 1018.77 1018.71 1018.62
1012.44 1012.26 1012.20 1011.83 1012.08 1012.70 1012.93 1013.35 1013.93 1014.25 1014.52 1014.77 1014.99 1015.06 1015.45 1015.70 1015.75 1016.07 1016.61 1016.98 1017.29 1017.75 1018.16 1018.75 1019.06 1019.28 1019.40 1019.55 1019.66 1019.74 1019.79 1019.83 1019.79 1019.81 1019.80 1019.75 1019.66 1019.51 1019.45 1019.35 1019.22 1019.24 1019.06 1018.84 1018.69 1018.63 1018.55 1018.51 1018.41
1011.90 1011.69 1011.67 1012.06 1012.56 1012.91 1013.33 1013.41 1013.79 1014.05 1014.54 1014.85 1015.36 1015.43 1015.46 1015.89 1016.15 1016.43 1016.81 1017.02 1017.31 1017.84 1018.16 1018.55 1019.13 1019.38 1019.41 1019.49 1019.69 1019.78 1019.82 1019.85 1019.75 1019.66 1019.71 1019.69 1019.60 1019.51 1019.37 1019.31 1019.12 1018.97 1018.99 1018.80 1018.68 1018.54 1018.40 1018.31 1018.18
1011.27 1012.08 1011.79 1011.92 1012.45 1012.89 1013.41 1013.62 1013.66 1014.13 1014.60 1015.09 1015.31 1015.39 1015.70 1016.16 1016.21 1016.41 1016.67 1017.02 1017.26 1017.58 1018.17 1018.54 1018.95 1019.17 1019.39 1019.43 1019.54 1019.71 1019.83 1019.95 1019.96 1019.78 1019.64 1019.54 1019.44 1019.38 1019.34 1019.29 1019.13 1018.91 1018.96 1018.84 1018.65 1018.46 1018.28 1018.13 1018.02
1011.30 1011.76 1012.04 1012.20 1012.45 1012.69 1013.28 1013.93 1013.70 1013.98 1014.49 1014.97 1015.31 1015.24 1015.76 1015.93 1015.95 1016.41 1016.88 1017.22 1017.41 1017.72 1018.03 1018.34 1018.51 1019.00 1019.41 1019.41 1019.53 1019.61 1019.74 1019.81 1019.87 1019.84 1019.68 1019.70 1019.56 1019.32 1019.39 1019.25 1019.09 1018.87 1018.91 1018.89 1018.62 1018.47 1018.34 1018.20 1018.05
1011.78 1011.93 1012.11 1012.24 1012.15 1012.10 1012.97 1013.60 1013.84 1013.97 1014.49 1015.15 1015.33 1014.96 1015.03 1015.17 1016.50 1016.82 1017.16 1017.42 1017.56 1017.63 1017.77 1018.09 1018.51 1018.57 1018.88 1019.01 1019.38 1019.53 1019.62 1019.74 1019.73 1019.72 1019.68 1019.73 1019.61 1019.45 1019.45 1019.25 1019.08 1019.10 1018.89 1018.94 1018.75 1018.55 1018.44 1018.38 1018.23
1012.03 1011.62 1011.48 1011.49 1011.85 1011.67 1012.77 1013.12 1013.87 1014.08 1014.26 1014.79 1014.89 1014.94 1014.44 1015.33 1016.20 1016.65 1017.17 1017.47 1017.73 1017.96 1018.17 1018.39 1018.63 1018.78 1019.02 1019.03 1019.23 1019.54 1019.59 1019.75 1019.64 1019.49 1019.65 1019.60 1019.43 1019.53 1019.42 1019.64 1019.53 1019.32 1019.01 1018.83 1018.71 1018.52 1018.43 1018.30 1018.14
1011.59 1011.55 1011.18 1011.18 1011.21 1011.41 1012.25 1012.69 1013.25 1013.71 1014.05 1014.45 1014.57 1014.86 1014.96 1015.57 1016.07 1016.40 1016.98 1017.28 1017.61 1017.84 1018.29 1018.71 1019.03 1019.19 1019.26 1019.13 1019.19 1019.19 1019.26 1019.31 1019.41 1019.36 1019.52 1019.50 1019.62 1019.74 1019.66 1019.67 1019.77 1019.59 1019.31 1018.97 1018.69 1018.41 1018.25 1018.07 1017.54
1011.67 1011.11 1011.23 1010.94 1011.18 1011.42 1011.96 1012.57 1013.11 1013.10 1013.41 1013.38 1013.58 1014.24 1014.76 1015.36 1015.96 1016.38 1016.95 1017.35 1017.66 1018.01 1018.44 1018.89 1019.10 1019.31 1019.34 1019.22 1019.18 1019.15 1019.20 1019.16 1019.36 1019.60 1019.65 1019.75 1019.66 1019.59 1019.48 1019.50 1019.41 1019.42 1019.19 1018.79 1018.54 1018.26 1017.86 1017.61 1017.42
1011.47 1011.02 1011.09 1010.78 1011.31 1011.63 1011.85 1012.21 1012.58 1012.50 1012.38 1012.76 1013.47 1014.08 1014.80 1015.12 1015.88 1016.66 1017.00 1017.42 1017.89 1018.23 1018.48 1018.88 1019.09 1019.21 1019.25 1019.19 1019.10 1019.10 1019.14 1019.31 1019.47 1019.79 1019.84 1019.78 1019.56 1019.66 1019.64 1019.51 1019.49 1019.35 1019.06 1018.94 1018.66 1018.28 1018.15 1017.91 1017.76
1011.44 1011.11 1010.98 1011.07 1011.46 1011.88 1012.17 1011.94 1012.31 1012.22 1012.45 1012.94 1013.35 1014.28 1014.78 1015.29 1016.17 1016.87 1017.54 1017.85 1018.05 1018.17 1018.37 1018.74 1019.16 1019.37 1019.65 1019.47 1019.41 1019.35 1019.55 1019.53 1019.80 1019.89 1019.92 1019.76 1019.67 1019.67 1019.63 1019.66 1019.51 1019.37 1019.18 1018.83 1018.52 1018.28 1018.07 1017.88 1017.53
1011.09 1011.15 1010.95 1011.11 1011.30 1011.71 1011.91 1012.56 1012.90 1011.85 1012.70 1013.17 1013.68 1014.24 1014.98 1015.54 1016.30 1017.02 1017.50 1017.80 1018.09 1018.27 1018.57 1019.01 1019.22 1019.35 1019.49 1019.53 1019.63 1019.68 1019.82 1019.86 1019.93 1019.96 1019.97 1019.92 1019.72 1019.83 1019.71 1019.57 1019.48 1019.33 1019.27 1018.98 1018.62 1018.22 1017.95 1017.55 1017.40
1010.79 1010.61 1010.91 1011.34 1011.50 1011.90 1012.06 1012.64 1012.09 1012.09 1012.71 1013.19 1013.58 1014.42 1015.40 1016.02 1016.56 1017.00 1017.69 1017.94 1018.11 1018.43 1018.84 1019.23 1019.45 1019.45 1019.51 1019.63 1019.77 1019.75 1019.63 1019.67 1019.79 1019.77 1019.83 1019.81 1019.85 1020.03 1019.96 1019.71 1019.63 1019.54 1019.37 1019.00 1018.57 1018.13 1017.82 1017.46 1017.06
1010.61 1010.80 1010.64 1011.46 1011.68 1012.31 1012.17 1011.34 1011.41 1012.67 1012.85 1013.08 1013.82 1014.82 1015.63 1016.31 1016.87 1017.55 1017.75 1017.85 1018.22 1018.41 1018.76 1019.11 1019.10 1019.32 1019.67 1019.84 1019.79 1019.79 1019.90 1019.82 1019.79 1019.65 1019.79 1020.04 1020.10 1020.19 1020.01 1019.74 1019.67 1019.64 1019.26 1018.87 1018.55 1018.13 1017.68 1017.27 1016.95
1010.77 1010.70 1011.00 1011.40 1011.98 1012.04 1012.34 1011.78 1012.49 1012.88 1013.20 1013.63 1014.45 1015.08 1015.70 1016.58 1017.26 1017.73 1017.98 1018.02 1018.20 1018.58 1018.76 1018.99 1019.33 1019.61 1019.66 1019.78 1019.84 1020.07 1020.37 1020.22 1020.29 1020.10 1020.05 1020.19 1020.18 1020.15 1020.20 1020.02 1019.95 1019.90 1019.36 1018.98 1018.69 1018.22 1017.90 1017.35 1016.89
1010.72 1010.85 1011.25 1011.45 1012.17 1012.23 1012.52 1012.75 1013.05 1013.66 1013.75 1014.39 1015.04 1015.44 1015.84 1016.56 1017.10 1017.80 1018.16 1018.25 1018.37 1018.59 1018.76 1019.04 1019.33 1019.56 1019.73 1019.75 1020.19 1020.30 1020.29 1020.30 1020.32 1019.96 1020.25 1020.57 1020.38 1020.42 1020.39 1020.12 1020.19 1019.97 1019.49 1019.09 1018.83 1018.62 1018.05 1017.59 1016.97
1011.26 1011.25 1011.51 1011.94 1012.49 1012.78 1013.35 1013.56 1013.82 1014.24 1014.48 1014.88 1015.31 1015.78 1016.00 1016.53 1017.23 1017.87 1018.19 1018.28 1018.35 1018.56 1018.72 1019.00 1019.28 1019.53 1019.71 1019.74 1019.84 1020.11 1020.15 1020.10 1020.21 1020.19 1020.46 1020.43 1020.29 1020.22 1020.26 1020.02 1020.05 1019.92 1019.61 1019.42 1019.06 1018.49 1017.87 1017.16 1016.79
1011.44 1011.64 1011.90 1012.33 1012.69 1012.80 1013.69 1013.86 1014.26 1014.49 1014.76 1015.20 1015.36 1015.66 1015.92 1016.41 1016.88 1017.29 1017.67 1018.04 1018.29 1018.45 1018.65 1018.90 1019.05 1019.30 1019.51 1019.50 1019.71 1019.96 1020.01 1020.14 1020.13 1020.11 1020.12 1020.17 1020.07 1019.90 1019.80 1019.93 1019.67 1019.61 1019.41 1019.25 1019.02 1018.65 1018.03 1017.33 1017.02
1011.97 1012.05 1012.30 1012.63 1013.14 1013.55 1013.78 1013.83 1014.29 1014.58 1014.75 1014.99 1015.31 1015.50 1015.84 1016.17 1016.28 1016.65 1017.06 1017.44 1017.89 1018.19 1018.44 1018.71 1019.00 1019.17 1019.42 1019.72 1020.00 1020.32 1020.07 1019.94 1019.61 1019.64 1019.71 1019.77 1019.83 1019.81 1019.81 1019.78 1019.69 1019.49 1019.23 1018.72 1018.74 1018.48 1018.09 1017.33 1016.80
1012.17 1012.58 1012.80 1013.03 1013.30 1013.64 1014.44 1013.69 1014.26 1014.68 1014.47 1014.67 1014.88 1015.10 1015.26 1015.47 1015.63 1016.14 1016.73 1017.12 1017.52 1017.87 1018.18 1018.41 1018.65 1018.91 1019.27 1019.77 1019.90 1019.95 1019.79 1019.60 1019.60 1019.81 1019.73 1019.55 1019.73 1019.76 1019.86 1019.83 1019.57 1019.27 1018.82 1018.63 1018.55 1018.24 1018.11 1017.78 1017.20
1012.97 1013.16 1013.46 1013.68 1013.76 1014.05 1014.46 1014.26 1014.29 1014.65 1014.24 1014.28 1014.43 1014.68 1014.87 1014.86 1015.30 1015.87 1016.57 1016.91 1017.15 1017.44 1017.60 1018.07 1018.60 1019.17 1019.55 1019.90 1019.71 1019.72 1019.75 1019.74 1019.81 1019.73 1019.66 1019.56 1019.54 1019.61 1019.44 1019.25 1019.20 1018.93 1018.53 1018.39 1018.34 1018.09 1017.84 1017.58 1017.35
1013.23 1013.47 1013.91 1014.17 1014.18 1014.13 1015.04 1014.89 1014.02 1014.18 1014.22 1014.26 1014.28 1014.30 1014.32 1014.47 1015.36 1015.88 1016.41 1016.79 1017.05 1017.27 1017.67 1018.26 1018.73 1019.18 1019.67 1019.61 1019.67 1019.88 1019.88 1019.83 1019.62 1019.44 1019.43 1019.32 1019.41 1019.28 1019.25 1019.10 1018.86 1018.57 1018.53 1018.34 1018.11 1017.79 1017.51 1017.34 1017.43
1013.07 1013.50 1013.65 1013.94 1014.18 1014.60 1015.31 1014.88 1014.22 1014.21 1014.33 1014.23 1014.00 1013.90 1013.85 1014.73 1015.29 1015.64 1016.00 1016.38 1016.76 1017.28 1017.74 1018.14 1018.61 1018.94 1019.26 1019.51 1019.72 1019.88 1019.90 1019.75 1019.58 1019.56 1019.35 1019.52 1019.24 1019.19 1019.09 1018.92 1018.80 1018.52 1018.15 1017.96 1017.73 1017.44 1017.24 1017.19 1017.21
1013.81 1014.21 1014.51 1014.85 1015.20 1015.07 1015.20 1014.65 1014.29 1014.37 1014.35 1014.31 1014.22 1013.97 1014.27 1014.74 1015.08 1015.56 1015.96 1016.50 1016.92 1017.41 1017.85 1018.21 1018.51 1018.78 1019.19 1019.47 1019.59 1019.62 1019.58 1019.43 1019.51 1019.57 1019.58 1019.41 1019.23 1018.97 1018.86 1018.92 1018.60 1018.17 1017.78 1017.48 1017.30 1016.92 1016.72 1016.77 1016.78
1014.15 1014.82 1015.70 1015.85 1016.69 1015.91 1015.30 1014.89 1014.27 1014.31 1014.12 1014.09 1013.82 1013.81 1014.36 1014.90 1015.31 1015.68 1016.18 1016.71 1017.13 1017.63 1018.08 1018.33 1018.52 1018.82 1019.08 1019.23 1019.30 1019.35 1019.49 1019.55 1019.50 1019.51 1019.50 1019.27 1019.20 1018.77 1018.57 1018.56 1018.26 1017.85 1017.37 1017.14 1016.92 1016.55 1016.49 1016.40 1016.26
1014.26 1015.39 1015.86 1016.08 1016.15 1015.82 1015.30 1014.85 1013.88 1013.80 1013.56 1013.53 1013.48 1013.89 1014.63 1014.97 1015.40 1015.83 1016.33 1016.90 1017.32 1017.65 1017.97 1018.18 1018.31 1018.40 1018.67 1018.89 1019.13 1019.31 1019.45 1019.55 1019.58 1019.52 1019.32 1019.13 1018.87 1018.57 1018.45 1018.21 1017.90 1017.36 1017.02 1016.86 1016.59 1016.21 1016.05 1015.96 1015.77
1015.00 1015.30 1016.31 1016.77 1017.05 1016.41 1015.48 1014.33 1013.81 1013.70 1013.72 1013.73 1013.63 1014.21 1014.45 1014.93 1015.39 1015.79 1016.27 1016.86 1017.20 1017.40 1017.60 1017.85 1018.16 1018.37 1018.51 1018.85 1019.14 1019.37 1019.54 1019.61 1019.53 1019.36 1019.11 1018.92 1018.60 1018.28 1018.20 1017.92 1017.54 1017.18 1016.92 1016.57 1016.23 1015.92 1015.70 1015.55 1015.38
1015.00 1015.62 1016.18 1016.41 1017.14 1017.06 1016.42 1014.68 1014.26 1014.26 1014.14 1014.15 1013.91 1014.10 1014.47 1015.27 1015.57 1015.90 1016.23 1016.63 1016.96 1017.06 1017.29 1017.73 1018.10 1018.24 1018.52 1019.03 1019.36 1019.53 1019.52 1019.40 1019.26 1019.01 1018.80 1018.60 1018.28 1018.14 1017.99 1017.64 1017.29 1016.96 1016.63 1016.24 1015.92 1015.43 1015.26 1015.19 1015.04
Thickness
5808 5808 5809 5805 5780 5774 5749 5751 5760 5752 5752 5762 5762 5755 5751 5754 5746 5732 5759 5758 5756 5753 5746 5742 5739 5736 5735 5733 5731 5730 5728 5726 5725 5725 5725 5723 5724 5724 5723 5722 5723 5722 5722 5721 5722 5723 5724 5724 5725
5811 5810 5809 5798 5771 5750 5749 5760 5756 5759 5764 5766 5764 5761 5756 5749 5761 5758 5756 5758 5757 5753 5748 5745 5741 5738 5735 5732 5731 5729 5727 5725 5724 5723 5723 5722 5722 5722 5721 5720 5720 5720 5721 5720 5719 5719 5721 5721 5723
5813 5814 5801 5786 5764 5752 5750 5761 5761 5764 5769 5767 5761 5767 5760 5754 5763 5764 5767 5761 5757 5753 5749 5744 5739 5737 5734 5731 5730 5727 5727 5726 5724 5723 5721 5721 5721 5719 5720 5721 5719 5719 5720 5720 5719 5719 5718 5719 5720
5812 5809 5801 5778 5760 5763 5764 5767 5767 5765 5769 5770 5763 5752 5764 5769 5766 5768 5765 5760 5756 5751 5746 5742 5739 5736 5734 5731 5729 5727 5726 5724 5723 5722 5720 5720 5719 5719 5719 5719 5719 5716 5717 5718 5718 5718 5718 5717 5718
5816 5806 5778 5767 5760 5767 5770 5776 5773 5765 5764 5763 5759 5747 5754 5766 5768 5765 5761 5758 5753 5749 5746 5743 5737 5734 5733 5731 5728 5725 5724 5722 5722 5722 5720 5718 5718 5718 5718 5717 5718 5717 5715 5716 5716 5716 5716 5715 5716
5801 5795 5771 5761 5763 5770 5772 5778 5775 5768 5765 5761 5755 5753 5753 5764 5762 5760 5759 5755 5753 5752 5747 5742 5739 5736 5733 5731 5728 5725 5722 5720 5717 5718 5718 5717 5716 5716 5715 5713 5714 5715 5712 5712 5712 5713 5713 5713 5712
5794 5784 5766 5764 5763 5767 5771 5778 5773 5768 5764 5758 5763 5747 5755 5759 5762 5759 5755 5752 5749 5747 5745 5742 5740 5736 5732 5731 5728 5726 5722 5719 5717 5715 5715 5712 5712 5713 5709 5709 5710 5711 5708 5706 5709 5708 5708 5707 5707
5800 5789 5765 5766 5764 5771 5780 5777 5779 5772 5762 5771 5768 5751 5751 5767 5762 5758 5754 5751 5749 5747 5745 5741 5737 5736 5733 5731 5727 5725 5722 5718 5717 5714 5712 5709 5709 5709 5707 5706 5705 5702 5704 5701 5702 5703 5702 5701 5701
5805 5782 5771 5775 5769 5783 5784 5776 5778 5783 5772 5769 5770 5767 5777 5774 5766 5759 5751 5747 5744 5743 5741 5738 5735 5733 5729 5727 5725 5722 5720 5715 5715 5713 5709 5706 5704 5703 5701 5698 5697 5696 5696 5697 5696 5697 5696 5695 5695
5797 5779 5782 5795 5797 5791 5786 5786 5780 5775 5768 5765 5767 5773 5776 5771 5764 5757 5748 5744 5743 5741 5738 5735 5731 5728 5725 5725 5723 5720 5717 5715 5711 5709 5705 5701 5700 5698 5697 5695 5691 5690 5689 5690 5690 5690 5690 5690 5691
5791 5786 5793 5799 5802 5802 5790 5786 5788 5779 5765 5777 5772 5773 5774 5770 5764 5759 5752 5748 5743 5741 5738 5733 5729 5726 5723 5721 5719 5717 5714 5711 5707 5703 5700 5698 5696 5694 5692 5689 5686 5684 5684 5684 5683 5683 5683 5683 5683
5786 5800 5799 5806 5801 5797 5790 5796 5785 5788 5789 5794 5786 5782 5775 5770 5763 5756 5751 5748 5743 5739 5737 5733 5728 5725 5722 5719 5716 5714 5710 5705 5701 5696 5694 5693 5692 5688 5686 5683 5680 5678 5678 5676 5675 5676 5674 5673 5671
5788 5796 5800 5805 5800 5796 5797 5792 5787 5788 5797 5795 5791 5781 5774 5770 5763 5756 5749 5746 5743 5738 5736 5731 5725 5721 5717 5715 5711 5708 5702 5699 5693 5690 5689 5689 5687 5684 5680 5677 5674 5671 5669 5669 5668 5668 5667 5666 5665
5799 5796 5800 5801 5798 5796 5790 5783 5783 5797 5798 5790 5784 5778 5773 5768 5761 5754 5749 5744 5740 5736 5732 5727 5721 5718 5715 5710 5706 5702 5697 5693 5689 5685 5684 5682 5680 5675 5672 5669 5666 5663 5660 5658 5658 5657 5656 5655 5653
5802 5795 5796 5792 5793 5788 5794 5772 5778 5798 5795 5787 5783 5778 5769 5764 5760 5754 5746 5742 5739 5734 5728 5722 5718 5714 5710 5706 5701 5697 5694 5690 5685 5683 5680 5677 5672 5668 5664 5661 5657 5654 5651 5650 5649 5648 5646 5645 5643
5793 5790 5779 5786 5790 5784 5788 5774 5794 5791 5789 5785 5780 5773 5766 5760 5756 5748 5745 5742 5735 5732 5726 5720 5715 5711 5705 5700 5696 5692 5686 5683 5680 5678 5673 5667 5661 5656 5653 5651 5647 5643 5642 5641 5639 5638 5636 5635 5631
5785 5770 5771 5776 5784 5783 5779 5776 5781 5786 5785 5778 5771 5767 5763 5754 5749 5744 5741 5738 5733 5727 5722 5716 5710 5703 5698 5693 5688 5683 5678 5675 5671 5668 5662 5656 5651 5647 5641 5637 5633 5630 5630 5629 5627 5626 5623 5622 5619
5769 5770 5770 5768 5774 5777 5768 5766 5774 5773 5776 5768 5762 5760 5757 5750 5746 5739 5735 5732 5729 5723 5718 5712 5705 5698 5692 5687 5681 5675 5671 5668 5664 5660 5651 5644 5641 5635 5630 5627 5622 5619 5618 5615 5612 5609 5609 5607 5606
5775 5771 5765 5771 5773 5764 5751 5754 5760 5762 5763 5759 5756 5751 5750 5746 5744 5734 5730 5727 5723 5717 5712 5706 5700 5693 5688 5682 5677 5671 5666 5664 5656 5650 5643 5639 5634 5629 5623 5618 5613 5608 5604 5600 5598 5598 5597 5597 5595
5775 5765 5762 5767 5769 5767 5750 5750 5754 5757 5755 5752 5751 5748 5747 5743 5740 5736 5730 5724 5718 5713 5708 5701 5697 5691 5684 5680 5673 5667 5663 5656 5650 5644 5638 5631 5626 5620 5613 5606 5603 5598 5595 5590 5586 5584 5584 5584 5580
5765 5762 5759 5756 5757 5755 5750 5748 5746 5751 5753 5751 5749 5748 5744 5740 5738 5734 5729 5723 5717 5709 5704 5698 5693 5687 5680 5673 5666 5659 5655 5651 5647 5639 5630 5621 5614 5607 5600 5595 5591 5587 5584 5583 5577 5573 5571 5570 5568
5756 5767 5760 5752 5746 5733 5736 5727 5738 5738 5746 5745 5744 5743 5744 5743 5741 5733 5726 5720 5713 5707 5703 5697 5690 5682 5674 5666 5659 5654 5648 5642 5636 5627 5620 5613 5604 5597 5589 5584 5579 5576 5573 5570 5566 5562 5557 5553 5551
5758 5758 5749 5743 5737 5733 5727 5726 5731 5733 5736 5742 5744 5742 5741 5743 5738 5730 5722 5716 5713 5707 5701 5693 5684 5674 5666 5658 5654 5647 5638 5632 5623 5616 5610 5603 5596 5587 5581 5576 5570 5567 5563 5560 5554 5551 5546 5541 5536
5760 5751 5741 5736 5733 5719 5712 5713 5725 5729 5734 5736 5740 5741 5741 5741 5731 5724 5718 5713 5707 5703 5694 5685 5675 5666 5657 5652 5646 5636 5628 5621 5616 5610 5602 5595 5586 5578 5571 5566 5561 5557 5553 5548 5543 5539 5534 5528 5520
5760 5746 5725 5718 5714 5706 5711 5714 5724 5734 5734 5736 5738 5740 5743 5733 5724 5719 5715 5710 5703 5696 5688 5679 5669 5661 5654 5646 5637 5629 5621 5615 5609 5601 5593 5583 5577 5570 5562 5556 5551 5546 5542 5537 5531 5527 5521 5515 5508
5739 5739 5718 5687 5694 5705 5714 5708 5723 5734 5736 5736 5736 5738 5733 5726 5723 5716 5710 5703 5697 5689 5679 5671 5663 5655 5647 5638 5630 5623 5617 5610 5600 5590 5582 5576 5568 5561 5553 5545 5540 5537 5533 5528 5521 5518 5512 5506 5498
5736 5729 5725 5702 5687 5695 5705 5717 5731 5730 5732 5731 5733 5733 5724 5718 5714 5709 5704 5696 5689 5680 5672 5664 5657 5648 5640 5633 5625 5616 5607 5598 5590 5581 5572 5566 5557 5552 5545 5536 5532 5528 5524 5519 5513 5510 5504 5497 5491
5744 5731 5716 5711 5686 5680 5699 5696 5713 5724 5728 5731 5729 5724 5716 5714 5709 5704 5698 5689 5682 5675 5667 5660 5653 5646 5636 5627 5617 5607 5597 5587 5578 5569 5562 5555 5548 5542 5535 5529 5524 5521 5517 5511 5506 5503 5498 5492 5487
5730 5724 5707 5705 5694 5685 5680 5701 5729 5726 5727 5723 5726 5717 5716 5709 5705 5699 5692 5683 5676 5671 5664 5656 5647 5638 5629 5618 5607 5596 5585 5574 5565 5557 5551 5544 5538 5533 5526 5521 5517 5513 5507 5503 5500 5498 5494 5489 5485
5734 5720 5715 5704 5687 5681 5677 5695 5724 5719 5719 5713 5714 5717 5713 5702 5697 5692 5687 5679 5671 5665 5659 5649 5638 5630 5620 5607 5594 5583 5572 5563 5555 5548 5541 5534 5529 5522 5516 5512 5508 5504 5500 5498 5497 5497 5494 5489 5484